#timestamp,LO_Frequency,Hit,StdDev 
1624003215.3,286047011.9,Y
1624003235.2,286046999.7,P
1624003255.9,286047000.4,N
1624003275.7,286047001.0,N
1624003295.6,286046999.3,N
1624003315.4,286047000.7,N
1624003335.3,286047000.9,N
1624003355.1,286046998.2,N
1624003356.0,286046998.2,N
1624003375.8,286047001.1,N
1624003395.7,286046998.5,N
1624003415.5,286046998.9,N
1624003435.3,286046998.7,N
1624003455.2,286046998.9,N
1624003475.0,286047000.6,N
1624003475.9,286047000.6,N
1624003495.8,286046999.2,N
1624003515.6,286046996.6,Y
1624003535.4,286046998.4,P
1624003555.3,286046998.9,N
1624003575.1,286046998.6,N
1624003595.9,286046998.9,N
1624003615.7,286046999.4,N
1624003635.5,286046999.1,N
1624003655.4,286046997.9,Y
1624003675.2,286046996.5,P
1624003695.0,286046999.4,N
1624003695.9,286046999.4,N
1624003715.8,286046998.4,N
1624003735.6,286046998.2,N
1624003755.5,286046998.8,N
1624003775.3,286046998.4,N
1624003795.1,286046998.7,N
1624003815.9,286046999.4,N
1624003835.7,286046999.3,N
1624003855.5,286046996.6,Y
1624003875.4,286047001.2,P
1624003895.2,286046999.0,N
1624003915.1,286046997.3,N
1624003916.0,286046997.3,N
1624003935.8,286046996.5,N
1624003955.6,286046999.0,N
1624003975.5,286047001.2,N
1624003995.3,286046999.3,N
1624004015.1,286047000.7,N
1624004035.9,286046999.9,N
1624004055.7,286047000.5,N
1624004075.6,286047002.4,N
1624004095.4,286047001.0,N
1624004115.2,286047001.1,N
1624004135.1,286046998.4,N
1624004136.0,286046998.4,N
1624004155.8,286047000.9,N
1624004175.7,286047001.0,N
1624004195.5,286047000.2,N
1624004215.3,286047002.0,N
1624004235.2,286047001.9,N
1624004255.0,286047001.8,N
1624004255.9,286047001.8,N
1624004275.8,286047001.8,N
1624004295.6,286047003.8,N
1624004315.4,286047004.0,N
1624004335.3,286047003.7,N
1624004355.1,286047003.2,N
1624004375.9,286047003.9,N
1624004395.7,286047003.9,N
1624004415.5,286047003.1,N
1624004435.4,286047005.6,N
1624004455.2,286047005.2,N
1624004475.0,286047005.6,N
1624004475.9,286047005.6,N
1624004495.8,286047005.6,N
1624004515.6,286047005.5,N
1624004535.5,286047005.4,N
1624004555.3,286047005.4,N
1624004575.1,286047005.3,N
1624004595.9,286047007.6,Y
1624004615.7,286047003.7,P
1624004635.5,286047005.5,P
1624004655.4,286047005.2,P
1624004675.2,286047005.3,Y
1624004695.1,286047000.9,P
1624004696.0,286047000.9,N
1624004715.8,286046998.1,N
1624004735.6,286047000.4,N
1624004755.5,286047000.6,N
1624004775.3,286047000.7,N
1624004795.2,286047001.1,N
1624004815.9,286046998.8,N
1624004835.7,286046998.5,N
1624004855.6,286046998.5,N
1624004875.4,286047001.1,N
1624004895.2,286046998.6,N
1624004915.1,286046998.7,N
1624004916.0,286046998.7,N
1624004935.8,286046998.7,N
1624004955.7,286046998.9,N
1624004975.5,286046998.4,N
1624004995.3,286046996.5,N
1624005015.2,286046997.2,N
1624005035.9,286046997.7,N
1624005055.7,286046999.2,N
1624005075.6,286046996.6,N
1624005095.4,286046999.1,N
1624005115.2,286046999.5,N
1624005135.1,286046999.4,N
1624005136.0,286046999.4,N
1624005155.8,286046998.3,N
1624005175.7,286046998.3,N
1624005195.5,286046999.5,N
1624005215.3,286046997.4,N
1624005235.2,286046999.2,N
1624005255.0,286046999.4,N
1624005255.9,286046999.4,N
1624005275.8,286046998.3,N
1624005295.6,286046999.0,N
1624005315.4,286046999.4,N
1624005335.3,286047001.2,N
1624005355.1,286046998.1,N
1624005375.8,286046998.3,N
1624005395.7,286047001.1,N
1624005415.5,286047000.8,N
1624005435.4,286046998.3,N
1624005455.2,286046998.9,N
1624005475.0,286047000.8,N
1624005475.9,286047000.8,N
1624005495.8,286047000.3,N
1624005515.6,286046999.8,N
1624005535.4,286047001.9,N
1624005555.3,286047000.3,N
1624005575.1,286047000.2,N
1624005595.9,286047002.5,N
1624005615.7,286047002.5,N
1624005635.5,286047002.5,N
1624005655.4,286047002.0,N
1624005675.2,286047001.7,N
1624005695.0,286046999.7,N
1624005695.9,286046999.7,N
1624005715.8,286047001.0,N
1624005735.6,286047000.1,N
1624005755.5,286046999.8,N
1624005775.3,286047000.6,N
1624005795.1,286047002.3,N
1624005815.9,286046999.8,N
1624005835.7,286047000.9,N
1624005855.5,286046999.8,N
1624005875.4,286047000.1,N
1624005895.2,286046999.8,N
1624005915.1,286047002.0,N
1624005916.0,286047002.0,N
1624005935.8,286047002.0,N
1624005955.6,286047002.4,N
1624005975.5,286047002.8,N
1624005995.3,286046999.8,N
1624006015.1,286047000.9,N
1624006035.9,286047000.4,N
1624006055.7,286047001.8,N
1624006075.6,286047000.2,N
1624006095.4,286047002.8,N
1624006115.2,286047002.7,N
1624006135.1,286047000.4,N
1624006136.0,286047000.4,N
1624006155.8,286047002.6,N
1624006175.6,286047002.8,N
1624006195.5,286047001.8,N
1624006215.3,286047001.9,N
1624006235.2,286047001.4,N
1624006255.9,286047002.2,N
1624006275.7,286047002.0,N
1624006295.6,286047001.7,N
1624006315.4,286047004.0,Y
1624006335.2,286047000.0,P
1624006355.1,286047000.5,N
1624006356.0,286047000.5,N
1624006375.8,286047002.2,Y
1624006395.7,286047001.1,P
1624006415.5,286047001.1,P
1624006435.3,286046998.5,P
1624006455.2,286046999.2,N
1624006475.0,286046998.9,N
1624006475.9,286046998.9,N
1624006495.8,286046998.7,N
1624006515.6,286046999.3,N
1624006535.4,286046999.4,N
1624006555.3,286047000.6,N
1624006575.1,286047000.6,N
1624006595.8,286047001.0,N
1624006615.7,286047002.4,N
1624006635.5,286047000.3,N
1624006655.4,286047000.0,N
1624006675.2,286046999.0,N
1624006695.0,286046999.4,N
1624006695.9,286046999.4,N
1624006715.8,286046998.9,N
1624006735.6,286047000.9,N
1624006755.4,286047000.0,N
1624006775.3,286047000.1,N
1624006795.1,286047000.4,N
